Погода в Давыдове

Россия / Нижегородская область     55°41′41″N   42°37′51″E
темп.,
°C
ветер,
м/с
пор.,
м/с
влажн.,
%
обл.,
%
осадки,
мм/ч
давл.,
гПа
погр.,
м
24 июня, чт
чт2400:00+22з11710 0.0 102111
03:00+20з11811 0.0 102111
06:00+23зюз11755 0.0 102156
09:00+28зсз225745 0.0 1020517
12:00+31сз22458 0.0 10201414
15:00+33сз124113 0.0 10191778
18:00+32юз11555 0.0 1018125
21:00+25юз22654 0.0 101712
25 июня, пт
пт2500:00+22юз22755 0.0 101818
03:00+21зюз228862 0.0 101713
06:00+23зюз24805 0.0 1017128
09:00+29з34581 0.0 1017541
12:00+32з334715 0.0 10161550
15:00+33з3441100 0.0 10162301
18:00+31з35515 0.0 1013293
21:00+24юз386758 0.0 1014155
26 июня, сб
сб2600:00+24зюз496967 0.0 1014225
03:00+21зюз228220 0.0 101430
06:00+23юз23805 0.0 1014137
09:00+28зюз34604 0.0 1014721
12:00+31з33451 0.0 10141974
15:00+32з34371 0.0 10122371
18:00+30зюз355241 0.0 1012249
21:00+25в127083 0.1 101223
27 июня, вс
вс2700:00+24ююз117419 0.0 101317
03:00+21ю11820 0.1 101318
06:00+24ююз117853 0.1 101388
09:00+28з236136 0.1 1014612
12:00+32з224617 0.0 10131855
15:00+30с115678 0.0 1013382
18:00+30в23609 0.0 1011303
21:00+19ссз379676 1.3 1014167
28 июня, пн
пн2800:00+20св018941 0.0 101311
03:00+19с1191100 0.0 101311
06:00+22зсз11796 0.0 101387
09:00+27з1258100 0.1 1013471
12:00+31ссв01498 0.0 10121069
15:00+33ссв224368 0.0 10111781
18:00+30всв356121 0.0 1010515
21:00+25всв36802 0.2 1010113